Emporia, KS

7:40 AM CDT on April 25, 2017 (GMT -0500)
Emporia Municipal

Weather History for KEMP - October, 2011

Change the Weather History Date:

Sunday, October 23, 2011

  Actual Average Record
Temperature  
Mean Temperature 60 °F 54 °F  
Max Temperature 79 °F 66 °F 85 °F (2012)
Min Temperature 41 °F 43 °F 27 °F (2006)
Degree Days  
Heating Degree Days 6 11  
Month to date heating degree days 178  
Since 1 July heating degree days 228  
Cooling Degree Days 0 0  
Month to date cooling degree days 29  
Year to date cooling degree days 1402  
Growing Degree Days 10 (Base 50)    
Moisture  
Dew Point 43 °F    
Average Humidity 61    
Maximum Humidity 93    
Minimum Humidity 27    
Precipitation  
Precipitation 0.00 in 0.08 in 1.15 in (2002)
Month to date precipitation 2.24  
Year to date precipitation 32.24  
Sea Level Pressure  
Sea Level Pressure 30.01 in    
Wind  
Wind Speed 4 mph (WSW)    
Max Wind Speed 10 mph    
Max Gust Speed 16 mph    
Visibility 10 miles    
Events      
T = Trace of Precipitation, MM = Missing Value Source: NWS Daily Summary

Daily Weather History Graph

Daily Weather History Graph

Search for Another Location

Airport or City:

Trip Planner

Search our weather history database for the weather conditions in past years. The results will help you decide how hot, cold, wet, or windy it might be!

Date:

Astronomy

Oct. 23, 2011 Rise Set
Actual Time 7:41 AM CDT 6:36 PM CDT
Civil Twilight 7:14 AM CDT 7:03 PM CDT
Nautical Twilight 6:43 AM CDT 7:34 PM CDT
Astronomical Twilight 6:12 AM CDT 8:04 PM CDT
Moon 3:52 AM CDT (10/23) 4:25 PM CDT (10/23)
Length of Visible Light 11h 48m
Length of Day
10h 54m
Waning Crescent, 14% of the Moon is Illuminated
Oct 23
Waning Crescent
Oct 26
New
Nov 2
First Quarter
Nov 10
Full
Nov 18
Last Quarter

Hourly Weather History & Observations

Time (CDT) Temp. Windchill Dew Point Humidity Pressure Visibility Wind Dir Wind Speed Gust Speed Precip Events Conditions
12:53 AM 51.1 °F - 42.1 °F 71% 30.01 in 10.0 mi West 5.8 mph - N/A   Clear
1:53 AM 48.9 °F - 42.1 °F 77% 30.01 in 10.0 mi Calm Calm - N/A   Clear
2:53 AM 48.0 °F - 42.1 °F 80% 30.01 in 10.0 mi NNE 3.5 mph - N/A   Clear
3:53 AM 45.0 °F - 41.0 °F 86% 30.01 in 10.0 mi Calm Calm - N/A   Clear
4:53 AM 45.0 °F 43.5 °F 41.0 °F 86% 29.99 in 10.0 mi West 3.5 mph - N/A   Clear
5:53 AM 42.1 °F 39.2 °F 39.0 °F 89% 30.01 in 10.0 mi West 4.6 mph - N/A   Clear
6:53 AM 43.0 °F 41.3 °F 39.9 °F 89% 30.02 in 10.0 mi NW 3.5 mph - N/A   Clear
7:53 AM 41.0 °F - 39.0 °F 93% 30.03 in 10.0 mi Calm Calm - N/A   Clear
8:53 AM 46.9 °F - 42.1 °F 83% 30.04 in 10.0 mi Calm Calm - N/A   Clear
9:53 AM 55.9 °F - 46.9 °F 72% 30.04 in 10.0 mi Calm Calm - N/A   Clear
11:53 AM 69.1 °F - 48.0 °F 47% 30.03 in 10.0 mi West 6.9 mph - N/A   Clear
12:53 PM 73.0 °F - 48.0 °F 41% 30.02 in 10.0 mi WSW 6.9 mph - N/A   Clear
1:53 PM 73.9 °F - 46.9 °F 38% 29.99 in 10.0 mi Variable 5.8 mph - N/A   Clear
2:53 PM 77.0 °F - 44.1 °F 31% 29.97 in 10.0 mi West 10.4 mph - N/A   Clear
3:53 PM 78.1 °F - 43.0 °F 29% 29.96 in 10.0 mi WSW 9.2 mph - N/A   Clear
4:53 PM 78.1 °F - 41.0 °F 27% 29.95 in 10.0 mi WSW 6.9 mph 16.1 mph N/A   Clear
5:53 PM 75.9 °F - 42.1 °F 30% 29.96 in 10.0 mi SW 5.8 mph - N/A   Clear
7:53 PM 60.1 °F - 43.0 °F 53% 29.99 in 10.0 mi South 9.2 mph - N/A   Clear
8:53 PM 60.1 °F - 44.1 °F 55% 30.00 in 10.0 mi SW 5.8 mph - N/A   Clear
9:53 PM 59.0 °F - 43.0 °F 55% 30.03 in 10.0 mi WSW 4.6 mph - N/A   Clear
10:53 PM 55.0 °F - 42.1 °F 62% 30.05 in 10.0 mi SW 6.9 mph - N/A   Clear
11:53 PM 59.0 °F - 39.9 °F 49% 30.06 in 10.0 mi West 4.6 mph - N/A   Clear